Regional Weather Roundup
Issued by NWS

Home | Current Version | Previous Version | Graphics & Text | Print | Product List | Glossary Off
Versions: 1 2 3 4 5 6 7 8 9 10 11 12 13 14 15 16 17 18 19 20 21 22 23 24 25 26 27 28 29 30 31 32 33 34 35 36 37 38 39 40 41 42 43 44 45 46 47 48 49 50

000
ASUS43 KTOP 221808
RWRKS

WEATHER ROUNDUP FOR KANSAS
NATIONAL WEATHER SERVICE GOODLAND KS
100 PM CDT FRI SEP 22 2017

NOTE:  "FAIR" INDICATES FEW OR NO CLOUDS BELOW 12,000 FEET WITH NO
SIGNIFICANT WEATHER AND/OR OBSTRUCTIONS TO VISIBILITY.

KSZ001>006-013>018-027>032-041>047-221900-
NORTHWEST KANSAS

CITY           SKY/WX    TMP DP  RH WIND       PRES   REMARKS
GOODLAND       MOSUNNY   89  45  21 S20G33    29.78F
6HR MIN TEMP:  62; 6HR MAX TEMP:  89;

HAYS           SUNNY     93  61  34 S26G33    29.81F
HILL CITY      SUNNY     97  57  26 S25G37    29.78F HX  96
6HR MIN TEMP:  76; 6HR MAX TEMP:  97;

RUSSELL        SUNNY     95  61  32 S25G36    29.82F HX  95
6HR MIN TEMP:  75; 6HR MAX TEMP:  95;

$$

KSZ061>065-074>080-084>089-221900-
SOUTHWEST KANSAS

CITY           SKY/WX    TMP DP  RH WIND       PRES   REMARKS
DODGE CITY     SUNNY     92  57  30 S20G30    29.87F
6HR MIN TEMP:  72; 6HR MAX TEMP:  93;

ELKHART          N/A     86  66  51 S14         N/A
GARDEN CITY    SUNNY     94  56  27 SW26G37   29.84F
6HR MIN TEMP:  71; 6HR MAX TEMP:  94;

GREAT BEND     SUNNY     92  65  40 S22G30    29.85F
LIBERAL        SUNNY     88  64  44 S17G25    29.87F
PRATT          SUNNY     89  65  44 S20G29    29.89S
6HR MIN TEMP:  71; 6HR MAX TEMP:  89;

$$

KSZ066>073-081>083-090>101-221900-
SOUTHEAST KANSAS

CITY           SKY/WX    TMP DP  RH WIND       PRES   REMARKS
CHANUTE        SUNNY     86  70  58 SE20G30   29.98F
6HR MIN TEMP:  72; 6HR MAX TEMP:  86;

COFFEYVILLE    SUNNY     87  70  56 S16G24    29.97F
6HR MIN TEMP:  71; 6HR MAX TEMP:  87;

HUTCHINSON     MOSUNNY   91  70  49 S21G26    29.88F HX  96
6HR MIN TEMP:  72; 6HR MAX TEMP:  91;

MEDICINE LODGE   N/A     90  67  46 S16G25    29.87F
NEWTON         SUNNY     90  70  51 S21G29    29.92F HX  95
WICHITA INTL   MOSUNNY   91  69  48 S24G33    29.90F HX  96
6HR MIN TEMP:  72; 6HR MAX TEMP:  91;

WICHITA JABRA  SUNNY     90  70  51 S20G30    29.91F HX  95
6HR MIN TEMP:  72; 6HR MAX TEMP:  90;

WICHITA MCCONL SUNNY     91  68  47 S20       29.92F
WINFIELD       SUNNY     88  72  58 S17       29.94F
6HR MIN TEMP:  72; 6HR MAX TEMP:  88;

$$

KSZ007>012-019>026-033>040-048>060-102>105-221900-
NORTHEAST KANSAS

CITY           SKY/WX    TMP DP  RH WIND       PRES   REMARKS
CONCORDIA      SUNNY     88  70  55 S22G30    29.84F
6HR MIN TEMP:  75; 6HR MAX TEMP:  88;

EMPORIA        SUNNY     87  70  56 S20G26    29.93F
6HR MIN TEMP:  72; 6HR MAX TEMP:  87;

LAWRENCE       SUNNY     88  70  55 S16G23    29.94F
6HR MIN TEMP:  74; 6HR MAX TEMP:  89;

MANHATTAN      SUNNY     94  69  44 S17G28    29.87F HX  99
6HR MIN TEMP:  77; 6HR MAX TEMP:  94;

MARYSVILLE     SUNNY     91  70  49 S20       29.87F HX  97
OLATHE IND     SUNNY     86  70  58 S14G23    29.98F
6HR MIN TEMP:  72; 6HR MAX TEMP:  86;

OLATHE EXE     SUNNY     85  72  65 S14G21    29.98F
6HR MIN TEMP:  70; 6HR MAX TEMP:  85;

SALINA         SUNNY     95  67  39 S21G29    29.85F HX  99
6HR MIN TEMP:  78; 6HR MAX TEMP:  95;

TOPEKA BILLARD SUNNY     89  73  59 SE20      29.92F HX  97
6HR MIN TEMP:  75; 6HR MAX TEMP:  89;

TOPEKA FORBES  SUNNY     90  72  55 S14G22    29.93F HX  97
6HR MIN TEMP:  75; 6HR MAX TEMP:  90;

$$




USA.gov is the U.S. government's official web portal to all federal, state and local government web resources and services.